Temp
5 5 5 5 5 5 7 9 10 10 9 9 9 11 12 10 13 12 12 14 16 16 16 15 16 14 14 15 15 16 15 13 12 13 14 15 15 15 15 10 12 11 11 13
5 5 5 5 5 5 6 10 11 13 11 9 9 11 12 14 14 15 15 15 16 17 16 15 15 14 15 15 15 14 16 12 11 13 13 14 13 15 15 12 11 13 11 13
5 5 5 4 6 6 7 10 8 10 12 11 10 11 12 14 14 15 16 16 16 17 16 16 15 14 14 15 14 13 15 14 11 10 13 12 11 13 13 10 11 13 13 15
5 5 4 4 6 8 8 9 8 8 11 11 12 12 13 14 14 15 16 16 16 15 15 15 14 14 14 15 14 16 14 12 12 14 14 14 12 12 12 8 11 10 14 15
5 4 4 4 5 8 7 7 6 7 9 13 13 13 12 12 13 14 15 15 15 15 14 14 14 15 15 15 15 16 15 11 12 10 14 14 12 13 13 12 12 13 15 15
4 4 4 4 4 6 6 5 6 6 9 13 13 11 11 11 13 14 14 14 14 14 13 14 15 15 14 15 15 15 14 12 11 11 13 13 11 12 13 13 13 13 12 14
4 4 4 4 4 5 5 4 4 7 9 11 12 12 12 12 13 12 14 14 14 13 14 14 16 15 15 15 15 14 14 14 13 11 13 11 13 15 15 13 14 14 14 16
5 4 4 4 4 4 5 4 5 6 7 9 10 11 11 12 14 13 14 13 13 13 13 13 14 14 14 14 14 15 14 14 13 11 12 15 13 13 14 13 13 14 14 15
5 5 4 4 4 4 5 4 4 5 5 9 9 9 10 10 10 12 13 14 13 13 13 13 13 12 14 13 13 14 14 13 12 11 11 13 14 14 15 15 13 14 14 14
5 5 4 4 4 4 4 4 4 4 5 7 9 9 9 10 10 10 12 13 13 13 12 12 12 13 15 13 13 12 12 13 11 11 11 13 14 14 15 13 13 14 15 15
6 5 5 4 4 4 4 4 4 4 4 6 7 9 8 9 9 10 10 11 11 11 11 12 13 13 14 13 15 14 13 12 13 13 12 11 13 13 14 14 15 14 14 13
5 5 5 4 4 4 4 4 5 4 3 4 5 5 5 6 8 8 9 10 11 12 11 11 12 13 13 13 13 14 12 13 13 12 12 14 14 14 15 14 14 14 13 12
6 5 4 4 4 4 4 4 4 4 4 5 5 6 7 6 6 7 7 9 11 11 10 10 12 12 12 12 12 14 13 14 12 12 14 13 14 14 13 14 12 12 12 12
6 5 4 4 4 3 3 3 4 3 4 3 6 8 8 7 7 7 7 8 8 8 9 10 11 11 12 12 12 11 12 12 12 13 14 15 15 14 12 12 12 11 11 12
6 5 4 4 4 3 3 3 4 4 3 3 4 5 6 7 6 7 7 7 7 7 8 10 10 11 11 11 10 10 12 12 11 12 13 13 12 11 12 12 11 11 11 10
6 5 4 3 4 3 3 4 3 3 3 3 3 6 6 7 8 7 7 7 6 8 8 9 10 13 12 10 10 13 14 13 13 12 12 12 12 11 11 11 10 10 9 10
6 4 4 3 2 3 3 3 3 3 2 3 3 3 7 8 8 7 7 7 7 8 9 9 10 11 11 10 10 13 13 13 13 11 11 12 12 10 10 10 9 9 9 9
4 4 3 2 3 3 2 3 3 2 2 3 2 4 6 7 7 7 7 7 7 8 9 9 10 10 10 10 12 12 12 12 11 10 9 9 9 9 10 8 8 8 7 8
3 3 2 2 2 2 3 4 3 2 2 3 4 4 5 5 7 8 7 8 8 8 8 10 10 10 10 11 12 12 10 10 9 9 8 8 7 8 8 8 7 7 7 7
2 1 2 2 3 3 3 2 3 2 2 2 2 5 5 5 6 6 6 7 7 7 8 8 8 9 11 8 7 6 5 5 6 7 7 7 7 7 7 6 5 6 6 6
2 1 2 2 2 2 3 3 3 3 3 3 3 4 4 6 6 6 7 6 7 8 8 9 8 8 8 6 4 4 4 4 4 4 5 5 5 5 5 4 5 6 6 5
1 1 1 2 3 3 4 4 4 4 5 5 5 6 4 6 5 5 6 7 6 8 8 8 7 7 5 4 4 4 4 5 5 4 4 3 3 3 3 3 4 4 3 4
1 1 2 3 3 3 4 5 5 6 6 5 4 5 5 6 6 7 6 7 7 6 7 8 8 4 4 4 4 4 4 4 3 2 2 2 1 1 1 1 1 1 2 3
2 2 2 3 4 4 5 5 5 4 4 5 4 4 5 6 6 6 7 7 6 7 8 8 6 4 3 2 2 3 2 3 2 1 1 1 1 1 0 0 -0 -0 0 0
2 2 3 3 4 3 3 2 3 4 4 5 5 4 5 5 6 6 6 7 7 8 8 7 4 3 2 1 1 1 1 1 1 0 0 0 0 0 -0 -1 -1 -1 -1 -1
0 2 2 4 2 2 2 3 2 3 3 4 3 5 6 6 6 6 7 7 8 7 5 2 2 2 2 2 1 1 -0 -0 -0 0 0 1 0 -0 -1 -1 -1 -2 -2 -2
-0 -1 2 2 3 3 4 4 3 3 3 4 4 6 6 5 6 7 6 7 6 3 2 1 2 2 1 1 1 1 2 1 1 0 -0 -1 -1 -0 -0 -1 -2 -2 -2 -2
Height
806 801 795 788 777 767 759 760 761 758 758 760 756 749 746 750 741 743 739 729 718 716 713 716 714 727 726 724 724 724 726 739 751 748 747 746 746 745 744 772 763 767 770 763
809 803 797 788 780 773 769 765 760 756 756 765 762 754 747 740 738 733 730 726 722 716 719 723 722 729 729 727 728 731 727 745 757 754 753 748 750 744 742 757 762 759 772 763
808 802 796 790 780 773 772 770 774 765 758 762 761 757 748 736 735 733 728 726 721 717 721 718 725 729 732 729 730 731 727 736 752 764 747 748 762 748 751 768 770 755 758 748
809 804 798 790 782 776 775 778 784 784 768 762 756 754 749 739 739 734 728 727 726 726 725 723 730 730 732 730 732 728 731 749 746 741 741 741 750 750 755 778 759 773 751 743
809 804 798 795 788 781 780 786 792 788 778 758 756 753 753 755 746 740 734 733 728 726 730 734 730 728 728 729 730 729 731 750 747 762 741 742 748 745 747 755 756 753 747 746
810 807 803 799 792 785 790 796 794 789 774 760 757 761 758 757 750 740 738 739 735 734 740 734 730 729 729 729 730 733 734 746 754 758 743 744 756 742 743 745 746 747 755 747
812 809 804 802 797 793 790 796 796 789 777 766 759 760 756 752 751 750 739 739 736 742 738 734 729 731 731 733 734 734 737 739 744 756 744 754 737 731 731 739 739 741 740 738
810 807 806 804 801 799 796 795 795 792 785 773 765 761 759 751 745 746 742 742 743 741 739 737 737 737 735 736 735 734 735 738 744 758 745 730 738 736 735 739 739 736 739 737
809 807 804 804 800 797 793 795 797 797 791 770 771 768 764 758 755 749 743 742 742 742 741 737 740 740 731 739 739 737 738 739 748 751 756 742 733 732 728 730 739 731 736 738
806 805 805 804 801 798 796 793 794 796 791 775 771 766 767 762 758 757 747 743 742 742 743 741 739 735 728 735 737 744 743 742 753 750 751 738 731 732 731 740 746 735 735 735
801 803 802 800 801 802 798 796 794 797 790 777 771 768 766 765 761 757 755 751 747 746 748 741 734 733 731 732 728 733 738 741 740 741 746 753 731 733 735 734 731 734 735 737
798 798 796 797 796 797 799 793 791 792 791 778 771 768 765 764 763 765 759 754 747 742 745 741 736 734 734 734 735 730 743 733 734 738 739 727 728 729 729 730 732 734 736 738
794 795 795 793 792 792 793 792 789 788 781 768 761 757 754 754 757 760 762 753 748 745 748 746 738 737 735 737 736 729 730 728 735 735 723 727 727 727 729 730 733 735 737 737
786 788 791 791 792 791 790 788 792 789 783 778 758 754 752 751 752 752 754 753 753 754 749 746 741 738 732 735 734 736 734 730 731 730 725 722 723 724 730 734 734 736 737 737
781 781 784 786 785 788 788 784 785 786 788 775 762 754 742 740 742 746 749 753 756 756 752 744 742 735 737 734 738 737 728 730 734 730 725 725 728 729 731 733 735 737 737 737
773 773 779 783 786 788 786 781 781 782 783 780 768 747 739 736 736 739 743 747 753 753 749 746 736 728 733 738 736 722 719 720 722 727 725 726 728 730 733 735 736 737 737 736
763 765 772 776 779 787 787 784 782 781 784 782 771 754 735 733 734 738 740 743 746 748 745 741 740 733 732 732 731 719 718 720 722 725 727 728 728 734 734 735 736 736 736 736
763 770 771 773 774 777 779 777 778 779 784 782 777 755 739 733 731 732 736 738 743 740 737 733 733 731 732 729 717 716 715 718 722 725 729 733 733 733 734 735 735 735 736 735
764 770 774 776 774 776 775 774 775 776 782 776 767 754 741 738 729 727 730 732 734 736 730 728 731 727 726 717 715 714 718 722 725 727 730 732 734 734 735 735 735 735 735 734
766 771 775 777 778 776 776 777 776 776 775 775 765 753 747 743 733 730 735 730 731 730 731 729 730 725 713 719 722 725 728 729 730 731 733 734 734 735 735 736 736 735 735 734
768 772 772 771 775 778 776 772 772 769 767 764 754 749 745 738 733 730 728 729 728 724 726 724 726 721 718 724 727 729 730 732 734 735 736 737 737 736 736 735 734 734 733 733
766 771 774 771 770 772 771 763 763 761 753 746 743 737 739 733 733 732 729 727 731 720 725 726 726 720 726 727 730 731 733 733 734 735 737 738 737 737 736 735 734 733 732 731
771 772 770 770 767 768 762 756 752 746 743 744 744 739 735 729 728 726 727 722 725 729 725 719 715 726 728 730 731 733 734 734 736 738 738 738 737 737 736 734 733 732 730 728
762 770 774 764 759 758 752 753 752 752 748 745 743 740 733 728 728 727 722 726 728 724 719 718 719 724 730 733 734 735 737 737 739 739 739 739 738 737 736 734 733 731 729 727
765 763 763 757 753 754 756 758 756 751 750 746 743 740 736 732 729 728 728 723 723 716 714 717 723 725 730 734 735 735 737 739 740 741 740 739 738 737 736 734 733 731 729 726
768 762 759 752 757 755 756 755 756 752 750 748 746 740 734 732 731 728 724 724 716 719 724 728 727 728 731 733 735 737 739 740 741 741 740 739 738 737 736 734 733 731 729 726
765 766 757 756 754 753 753 752 752 752 750 746 745 737 733 737 730 726 725 724 726 732 731 731 729 729 731 733 735 737 738 739 740 741 740 740 739 737 736 735 733 731 728 727
Wind_Speed
25 28 32 33 35 36 14 4 3 4 2 3 1 4 4 2 3 4 6 6 7 7 8 9 5 7 5 6 4 4 5 4 3 3 3 1 3 5 5 3 2 1 1 3
25 27 31 32 34 27 7 4 3 3 4 3 4 7 7 3 7 5 6 4 4 4 4 3 5 5 5 4 5 3 3 3 4 3 2 2 3 3 2 5 2 2 1 2
23 25 29 32 31 19 5 3 4 3 2 4 1 3 6 4 3 3 4 3 5 3 6 7 4 4 3 4 4 7 4 4 3 3 3 4 2 4 5 4 2 2 4 5
21 24 27 30 30 17 3 4 4 3 4 4 6 3 8 10 7 8 4 1 5 4 2 2 4 3 4 1 1 1 4 3 3 4 4 3 4 3 7 4 5 3 5 2
18 19 24 28 32 14 9 3 3 4 4 7 7 7 5 8 10 7 5 6 6 8 6 5 1 2 2 2 0 2 2 2 3 2 0 2 3 5 6 7 7 7 5 5
17 18 21 22 27 17 9 7 5 1 6 6 5 2 4 6 9 2 5 7 9 6 4 6 6 4 5 5 2 1 2 3 1 1 1 4 5 10 9 6 6 9 7 6
16 16 15 18 19 15 7 4 3 2 4 7 6 6 7 7 8 6 6 6 6 2 6 7 2 4 4 4 2 3 2 2 1 1 1 2 3 4 2 8 6 7 6 4
14 14 13 14 14 16 7 6 3 2 4 5 10 10 10 8 8 4 4 3 4 5 5 2 0 1 2 2 3 1 3 2 2 1 3 1 1 2 3 5 5 8 6 3
14 13 11 10 10 11 7 3 5 3 2 2 9 9 8 4 5 6 3 3 1 3 2 2 2 2 2 3 2 1 1 3 1 2 1 2 3 3 1 2 2 3 7 6
14 14 12 11 9 8 7 1 4 5 3 4 4 2 4 5 2 4 6 2 2 0 2 2 2 2 3 2 4 4 3 3 3 4 2 4 5 5 1 2 3 5 2 2
16 14 12 11 10 10 7 6 3 3 3 8 6 5 5 6 3 3 4 3 2 1 2 2 2 1 2 2 1 4 5 4 4 4 2 5 4 2 1 4 4 5 4 4
19 16 12 10 7 6 7 6 5 7 5 6 18 22 23 19 15 2 3 4 5 3 2 1 2 2 2 4 1 3 2 2 2 5 3 2 5 5 4 3 3 2 4 4
22 19 14 10 8 9 9 14 11 8 3 9 8 7 13 17 26 17 3 3 4 2 4 3 2 2 2 1 4 4 5 2 1 3 2 6 6 4 5 4 5 3 3 2
25 20 15 9 9 10 10 10 13 7 4 4 4 7 8 5 8 24 24 10 5 4 3 3 2 2 1 2 0 1 0 4 5 4 5 3 4 5 8 5 3 3 2 2
26 22 16 12 9 9 11 16 17 13 4 3 7 26 21 14 29 16 23 18 6 1 3 3 3 1 1 1 2 3 4 4 3 2 2 4 5 7 7 4 3 3 2 4
28 24 13 9 7 7 6 2 1 7 8 3 4 7 7 16 9 19 11 10 5 3 3 3 3 1 1 2 3 4 1 4 1 2 4 4 5 6 5 3 3 2 3 4
24 22 12 9 7 10 4 2 1 0 5 2 4 4 4 3 4 4 4 10 2 3 3 4 3 3 2 2 4 2 5 6 4 5 4 2 1 3 4 3 3 3 4 4
18 14 14 8 7 8 6 19 19 9 2 3 3 4 4 2 3 3 5 5 4 4 3 2 2 1 3 4 4 8 4 4 6 6 5 3 2 3 3 3 3 3 4 3
19 9 4 1 1 3 4 4 13 13 4 2 3 3 3 4 2 2 2 4 3 1 3 3 2 3 5 5 3 3 6 4 1 5 5 3 3 3 4 4 4 4 5 2
15 7 3 0 3 4 4 2 2 2 2 3 4 3 4 1 2 1 3 2 3 2 4 2 4 4 4 5 6 6 6 6 4 2 1 1 2 3 4 4 5 5 5 5
4 2 1 1 4 2 2 2 3 3 3 3 3 5 4 1 3 2 2 1 2 3 3 3 2 3 2 6 7 5 5 4 4 2 1 2 4 4 5 5 5 7 9 8
9 5 2 2 3 2 3 3 3 4 3 4 3 2 4 3 1 2 2 2 0 2 2 1 3 1 4 5 5 5 4 3 3 5 4 5 5 6 6 6 6 8 10 13
7 1 2 2 2 3 4 4 3 3 1 3 3 3 2 2 4 1 1 2 2 2 2 2 2 3 4 4 4 5 5 6 6 5 5 5 6 6 6 6 8 10 11 12
3 3 3 3 3 3 1 3 3 3 3 5 4 3 2 1 1 0 1 1 2 2 3 3 2 4 5 4 3 3 4 5 5 4 5 5 6 5 6 7 9 10 10 12
2 3 4 4 1 1 1 2 3 2 3 4 3 3 2 2 1 1 1 2 2 2 2 0 1 5 5 4 3 4 4 3 3 2 3 5 6 6 6 8 9 9 11 10
1 3 2 2 2 2 2 2 2 0 3 2 1 2 2 2 2 1 2 3 1 2 2 1 3 5 5 5 4 4 4 2 0 3 5 6 6 7 7 9 9 11 10 11
2 3 2 2 1 4 4 3 1 2 2 2 2 2 1 2 2 2 1 2 2 2 3 1 2 5 6 5 5 5 4 2 1 3 4 6 9 9 7 5 12 13 11 11
Wind_Direction
356 355 354 354 354 353 16 317 25 339 273 18 4 13 340 37 282 180 256 263 9 13 32 19 64 74 52 358 334 45 13 104 123 92 110 316 310 203 204 129 230 104 186 292
353 354 353 355 358 2 348 351 310 344 269 35 0 340 317 281 351 17 334 24 358 352 13 87 74 85 63 2 38 44 171 133 113 143 179 163 229 231 48 78 46 217 89 216
352 353 356 356 1 16 10 358 2 326 59 183 207 330 313 334 156 308 341 357 283 341 42 39 97 95 65 23 51 330 331 54 99 149 95 115 172 212 126 105 134 184 218 142
354 357 359 358 8 18 31 34 29 20 332 341 318 8 339 346 7 340 335 48 1 344 17 77 74 87 149 104 129 285 29 116 91 74 92 95 175 195 157 149 236 125 327 245
353 360 4 5 10 27 63 41 6 343 286 304 342 11 17 352 343 352 7 17 356 18 50 10 4 174 229 93 124 48 356 89 87 307 62 216 219 227 207 175 236 268 280 320
352 358 6 9 14 38 51 4 340 260 284 318 341 11 351 312 330 265 34 326 312 48 19 343 360 24 36 28 28 153 334 122 142 196 168 296 283 223 203 177 189 205 212 220
347 356 1 10 15 41 72 38 288 303 298 315 349 311 314 310 317 298 327 342 319 78 299 293 168 110 125 112 36 338 191 184 87 282 192 263 150 27 162 195 197 211 254 257
336 344 352 0 9 20 34 35 22 328 289 308 300 342 310 326 287 248 305 26 22 333 296 312 193 182 196 103 20 236 310 234 173 213 229 284 118 167 179 145 245 213 212 274
322 327 331 339 357 6 47 33 357 294 310 158 344 312 294 306 334 300 139 148 355 308 280 258 276 229 225 173 202 200 291 323 89 92 260 264 112 134 68 202 147 75 168 212
306 307 319 325 327 346 358 276 4 281 274 268 349 305 322 306 284 274 292 38 241 143 293 263 213 271 31 205 197 163 199 204 212 233 263 310 139 149 115 208 136 120 109 245
288 298 303 316 310 313 339 315 316 320 278 287 262 268 252 280 265 276 355 301 215 241 244 266 246 246 205 335 54 165 176 190 201 207 227 252 137 114 318 142 172 87 73 61
276 278 280 292 290 300 302 289 299 266 239 269 295 275 270 267 265 307 286 313 315 358 310 277 331 270 179 261 250 62 265 183 174 176 210 105 177 93 103 68 96 102 100 79
270 267 270 275 275 273 273 283 290 282 261 281 247 243 267 248 239 232 227 244 358 327 3 302 298 280 48 238 231 202 219 132 214 41 214 164 185 130 91 66 107 96 95 111
263 254 252 257 276 276 284 282 279 272 284 277 289 304 292 273 264 219 224 266 347 337 295 268 260 262 117 313 85 334 97 99 213 247 265 172 205 147 120 97 101 168 226 239
267 240 226 238 248 268 288 283 275 247 221 292 299 301 279 295 245 237 211 227 253 358 292 237 232 208 110 191 51 246 188 198 199 246 12 85 65 99 92 82 76 41 355 314
258 228 207 230 243 292 302 304 267 231 232 300 297 314 289 293 238 195 212 197 202 212 224 265 281 282 176 230 221 238 346 184 124 328 63 84 108 102 92 75 35 353 340 318
262 194 199 201 218 255 224 234 48 231 185 284 292 286 257 259 180 180 198 173 174 197 226 208 243 251 169 254 223 234 180 188 199 90 63 317 263 101 52 38 3 359 316 287
196 190 186 220 248 246 258 261 246 200 204 267 275 276 286 353 177 191 184 164 185 205 221 245 223 233 196 252 230 226 252 169 135 129 107 75 12 350 347 57 355 330 303 302
165 162 145 72 98 208 248 263 199 204 200 271 244 268 300 8 307 140 164 185 169 269 226 183 191 210 224 235 227 252 142 125 58 107 86 36 322 318 347 327 312 303 303 293
131 108 91 203 235 231 136 106 160 186 212 221 255 285 272 276 301 239 149 219 163 188 194 164 203 256 261 113 90 89 69 83 69 95 284 293 325 340 349 346 334 307 294 298
93 116 160 109 165 193 233 231 211 175 235 216 237 234 253 219 239 269 227 174 172 195 168 196 226 256 124 92 84 77 79 78 71 51 22 314 320 324 321 312 315 314 307 299
144 146 161 174 194 215 258 219 201 209 249 191 229 247 208 239 170 226 228 168 243 165 111 173 249 139 102 105 107 90 99 96 82 54 23 358 335 326 315 309 308 308 304 296
116 113 194 207 152 239 241 213 212 235 231 15 328 308 297 253 205 236 169 184 142 123 163 231 240 130 121 122 128 108 73 72 67 55 32 9 347 338 330 316 318 313 304 303
149 162 224 216 196 226 301 319 330 329 309 331 316 288 297 294 2 163 235 111 119 186 229 233 159 162 141 104 92 118 90 78 68 45 20 9 356 342 344 343 335 327 315 316
165 182 227 210 259 165 235 297 300 343 312 316 308 291 265 304 304 347 287 189 236 239 243 189 129 131 136 143 139 130 107 76 53 11 352 348 349 348 345 350 344 340 335 331
212 230 262 217 73 261 207 223 259 287 310 276 225 287 295 278 319 299 230 309 280 353 2 324 116 135 144 147 144 131 128 153 255 316 328 336 349 337 327 340 351 352 351 347
207 256 259 292 315 276 284 299 11 330 309 314 301 272 11 316 254 255 202 278 353 313 330 343 143 157 153 147 148 159 154 139 114 350 353 344 340 334 343 350 344 348 357 353